User: anonymous   Login
Location: Lawrence Hall of Science
(37.8785°N, 122.2415°W)
Time: 20:55:15
(UTC-07:00)
Language:

Cosmos 2098 Rocket - Orbit

View from above orbital plane
View from above orbital plane
View from above satellite
View from above satellite

Ground track
Ground track

The orbit data is extracted from the following two-line orbital elements,

1 20775U 90078B   15243.73523494  .00002867  00000-0  14827-3 0  9995
2 20775  82.9298 223.5521 0610914 194.4334 223.5041 14.25134531255200
Epoch (UTC): 31 August 2015 17:38:44
Eccentricity: 0.0610914
inclination: 82.9298°
perigee height: 369 km
apogee height: 1247 km
right ascension of ascending node: 223.5521°
argument of perigee: 194.4334°
revolutions per day: 14.25134531
mean anomaly at epoch: 223.5041°
orbit number at epoch: 25520

The dashed part of the orbit path shows where the satellite is in the earth's shadow,  

DLR